User: anonymous
Location: Unspecified
(0.0000°N, 0.0000°E)
Time: 12:17:12
(UTC+02:00)
Language:

Delta 168 - Orbit

View from above orbital plane
View from above orbital plane
View from above satellite
View from above satellite

Ground track
Ground track

The orbit data is extracted from the following two-line orbital elements,

1 14051U 83041B   14272.44998582  .00011597  00000-0  11595-2 0  6209
2 14051 025.3384 238.3970 1126144 310.9347 211.7933 13.01736582448666
Epoch (UTC): 29 September 2014 10:47:58
Eccentricity: 0.1126144
inclination: 25.3384°
perigee height: 395 km
apogee height: 2115 km
right ascension of ascending node: 238.3970°
argument of perigee: 310.9347°
revolutions per day: 13.01736582
mean anomaly at epoch: 211.7933°
orbit number at epoch: 44866

The dashed part of the orbit path shows where the satellite is in the earth's shadow,  

DLR